Weather History for Buffalo, WY

Change the Weather History Date:

Tuesday, October 16, 2012

  Actual Average Record
Temperature  
Mean Temperature 52 °F 46 °F  
Max Temperature 70 °F 58 °F 72 °F (2005)
Min Temperature 39 °F 34 °F 24 °F (1999)
Degree Days  
Heating Degree Days 12 19  
Month to date heating degree days 269  
Since 1 July heating degree days 583  
Cooling Degree Days 0 0  
Month to date cooling degree days 0  
Year to date cooling degree days 491  
Growing Degree Days 2 (Base 50)    
Moisture  
Dew Point 36 °F    
Average Humidity 66    
Maximum Humidity 93    
Minimum Humidity 33    
Precipitation  
Precipitation 0.07 in 0.04 in 0.49 in (1998)
Month to date precipitation 0.64  
Year to date precipitation 12.22  
Sea Level Pressure  
Sea Level Pressure 29.55 in    
Wind  
Wind Speed 10 mph (WNW)    
Max Wind Speed 34 mph    
Max Gust Speed 56 mph    
Visibility 10 miles    
Events Rain , Thunderstorm    
T = Trace of Precipitation, MM = Missing Value Source: NWS Daily Summary

Daily Weather History Graph

Daily Weather History Graph

Search for Another Location

Airport:

Trip Planner

Search our weather history database for the weather conditions in past years. The results will help you decide how hot, cold, wet, or windy it might be!

Date:

Astronomy

Oct. 16, 2012 Rise Set
Actual Time 7:23 AM MDT 6:20 PM MDT
Civil Twilight 6:54 AM MDT 6:49 PM MDT
Nautical Twilight 6:20 AM MDT 7:22 PM MDT
Astronomical Twilight 5:47 AM MDT 7:56 PM MDT
Moon 8:55 AM MDT (10/16) 7:01 PM MDT (10/16)
Length of Visible Light 11h 54m
Length of Day
10h 56m
New Moon, 2% of the Moon is Illuminated
Oct 16
New Moon
Oct 21
First Quarter
Oct 29
Full
Nov 6
Last Quarter
Nov 13
New

Hourly Weather History & Observations

Time (MDT) Temp. Windchill Dew Point Humidity Pressure Visibility Wind Dir Wind Speed Gust Speed Precip Events Conditions
12:53 AM 42.1 °F 37.7 °F 37.0 °F 82% 29.82 in 10.0 mi WSW 6.9 mph - N/A   Clear
1:53 AM 41.0 °F 38.0 °F 37.0 °F 86% 29.79 in 10.0 mi West 4.6 mph - N/A   Clear
2:53 AM 39.9 °F 35.1 °F 36.0 °F 86% 29.75 in 10.0 mi WSW 6.9 mph - N/A   Clear
3:53 AM 41.0 °F 36.4 °F 34.0 °F 76% 29.72 in 10.0 mi WSW 6.9 mph - N/A   Clear
4:53 AM 42.1 °F 40.2 °F 34.0 °F 73% 29.69 in 10.0 mi South 3.5 mph - N/A   Clear
6:53 AM 43.0 °F 38.8 °F 36.0 °F 76% 29.63 in 10.0 mi SSW 6.9 mph - N/A   Clear
7:53 AM 43.0 °F - 36.0 °F 76% 29.60 in 10.0 mi Calm Calm - N/A   Clear
8:53 AM 46.9 °F - 36.0 °F 66% 29.58 in 10.0 mi WSW 6.9 mph - N/A   Scattered Clouds
9:53 AM 48.0 °F - 39.0 °F 71% 29.52 in 10.0 mi Calm Calm - N/A   Mostly Cloudy
10:53 AM 54.0 °F - 39.9 °F 59% 29.47 in 10.0 mi Calm Calm - N/A   Mostly Cloudy
11:53 AM 59.0 °F - 34.0 °F 39% 29.43 in 10.0 mi NNW 9.2 mph - 0.00 in   Overcast
12:53 PM 57.9 °F - 39.9 °F 51% 29.45 in 10.0 mi WNW 5.8 mph - N/A   Scattered Clouds
1:53 PM 66.9 °F - 37.0 °F 33% 29.34 in 10.0 mi SSE 8.1 mph - 0.00 in   Clear
2:53 PM 66.0 °F - 37.0 °F 34% 29.32 in 10.0 mi SSE 12.7 mph - N/A Thunderstorm Overcast
3:10 PM 66.2 °F - 37.4 °F 35% 29.47 in 10.0 mi North 28.8 mph 51.8 mph N/A   Squalls
3:23 PM 46.4 °F 36.5 °F 42.8 °F 87% 29.47 in 10.0 mi North 34.5 mph 56.4 mph 0.01 in Rain Light Rain
3:34 PM 46.4 °F 37.7 °F 44.6 °F 93% 29.49 in 10.0 mi NNW 26.5 mph 46.0 mph 0.02 in Rain Light Rain
3:53 PM 46.9 °F - 44.1 °F 90% 29.45 in 10.0 mi NNW 24.2 mph 39.1 mph 0.02 in Rain Light Rain
4:53 PM 48.0 °F - 44.1 °F 86% 29.46 in 10.0 mi NNW 19.6 mph 27.6 mph 0.01 in Rain Light Rain
5:53 PM 48.9 °F - 39.9 °F 71% 29.46 in 10.0 mi WNW 10.4 mph - 0.04 in   Overcast
6:53 PM 50.0 °F - 39.0 °F 66% 29.45 in 10.0 mi North 12.7 mph 19.6 mph N/A   Overcast
7:53 PM 46.9 °F - 39.0 °F 74% 29.53 in 10.0 mi North 21.9 mph 36.8 mph N/A   Overcast
8:53 PM 46.0 °F 38.5 °F 34.0 °F 63% 29.55 in 10.0 mi North 19.6 mph 27.6 mph 0.00 in Rain Light Rain
9:53 PM 42.1 °F 34.9 °F 30.0 °F 62% 29.57 in 10.0 mi NNW 13.8 mph 26.5 mph 0.00 in   Clear
10:53 PM 45.0 °F 36.9 °F 19.9 °F 37% 29.60 in 10.0 mi NNW 20.7 mph 28.8 mph N/A   Clear
11:53 PM 42.1 °F 34.5 °F 17.1 °F 37% 29.63 in 10.0 mi NW 15.0 mph - N/A   Clear